1517806800.67,55178,7.13,72772.8,-15.83,-16.31,-16.31,0,*61
1517806801.89,55179,7.13,72774.3,-15.83,-16.45,-16.41,0,*64
1517806803.15,55180,7.13,72774.3,-15.83,-16.31,-16.31,0,*66
1517806804.41,55181,7.13,72774.0,-15.83,-16.31,-16.31,0,*67
1517806805.7,55182,7.13,72774.8,-15.85,-16.31,-16.31,0,*62
1517806806.96,55183,7.13,72768.5,-15.83,-16.31,-16.31,0,*65
1517806808.22,55184,7.13,72772.8,-15.83,-16.31,-16.31,0,*62
1517806809.46,55185,7.13,72772.3,-15.83,-16.45,-16.27,0,*67
1517806810.7,55186,7.13,72774.8,-15.83,-16.31,-16.41,0,*67
1517806811.96,55187,7.13,72774.3,-15.83,-16.31,-16.31,0,*61
1517806813.19,55188,7.13,72772.0,-15.83,-16.31,-16.41,0,*69
1517806814.45,55189,7.13,72772.8,-15.83,-16.31,-16.31,0,*6F
1517806815.69,55190,7.13,72770.5,-15.83,-16.27,-16.41,0,*67
1517806816.95,55191,7.13,72772.5,-15.83,-16.31,-16.31,0,*66
1517806818.21,55192,7.13,72766.0,-15.83,-16.31,-16.31,0,*65
1517806819.43,55193,7.13,72768.8,-15.83,-16.41,-16.41,0,*64
1517806820.65,55194,7.13,72764.3,-15.83,-16.41,-16.41,0,*63
1517806821.92,55195,7.13,72766.5,-15.83,-16.31,-16.27,0,*65
1517806823.16,55196,7.13,72772.5,-15.83,-16.41,-16.31,0,*66
1517806824.42,55197,7.13,72770.8,-15.83,-16.31,-16.31,0,*60
1517806825.66,55198,7.13,72768.0,-15.83,-16.41,-16.31,0,*68
1517806826.93,55199,7.13,72770.0,-15.85,-16.31,-16.41,0,*6F
1517806828.15,55200,7.13,72770.8,-15.83,-16.41,-16.41,0,*6D
1517806829.42,55201,7.13,72774.8,-15.85,-16.31,-16.41,0,*6D
1517806830.66,55202,7.13,72776.0,-15.83,-16.27,-16.41,0,*6F
1517806831.92,55203,7.13,72774.8,-15.83,-16.31,-16.31,0,*6E
1517806833.17,55204,7.13,72770.8,-15.85,-16.41,-16.41,0,*6F
1517806834.43,55205,7.13,72774.8,-15.85,-16.31,-16.41,0,*69
1517806835.73,55206,7.13,72770.5,-15.85,-16.27,-16.31,0,*6A
1517806836.99,55207,7.13,72772.8,-15.83,-16.31,-16.31,0,*6A
1517806838.26,55208,7.13,72774.8,-15.85,-16.41,-16.31,0,*64
1517806839.5,55209,7.13,72772.0,-15.83,-16.41,-16.31,0,*63
1517806840.76,55210,7.13,72772.3,-15.85,-16.41,-16.41,0,*6A
1517806842.05,55211,7.13,72772.8,-15.85,-16.27,-16.31,0,*6C
1517806843.29,55212,7.13,72772.8,-15.83,-16.41,-16.27,0,*6E
1517806844.57,55213,7.13,72774.0,-15.85,-16.41,-16.31,0,*6E
1517806845.81,55214,7.13,72772.3,-15.83,-16.41,-16.31,0,*6F
1517806847.07,55215,7.13,72774.8,-15.83,-16.31,-16.31,0,*69
1517806848.36,55216,7.13,72776.0,-15.85,-16.31,-16.31,0,*6C
1517806849.6,55217,7.13,72774.0,-15.83,-16.31,-16.41,0,*6C
1517806850.83,55218,7.13,72774.0,-15.83,-16.31,-16.41,0,*63
1517806852.09,55219,7.13,72774.8,-15.83,-16.31,-16.27,0,*62
1517806853.34,55220,7.13,72774.8,-15.83,-16.41,-16.31,0,*68
1517806854.55,55221,7.13,72774.0,-15.83,-16.41,-16.45,0,*6A
1517806855.81,55222,7.13,72778.8,-15.83,-16.31,-16.31,0,*6D
1517806857.08,55223,7.13,72776.3,-15.85,-16.41,-16.31,0,*6D
1517806858.37,55224,7.13,72778.3,-15.85,-16.31,-16.27,0,*6A
1517806859.63,55225,7.13,72778.0,-15.83,-16.31,-16.31,0,*6A
1517806860.9,55226,7.13,72776.8,-15.85,-16.27,-16.41,0,*6F
1517806862.14,55227,7.13,72776.0,-15.83,-16.31,-16.41,0,*6F
1517806863.44,55228,7.13,72772.3,-15.85,-16.27,-16.31,0,*66
1517806864.7,55229,7.13,72778.8,-15.85,-16.27,-16.45,0,*64
1517806865.96,55230,7.13,72776.0,-15.83,-16.31,-16.31,0,*6E
1517806867.22,55231,7.13,72778.5,-15.83,-16.31,-16.27,0,*68
1517806868.47,55232,7.13,72776.3,-15.85,-16.41,-16.41,0,*6A
1517806869.73,55233,7.13,72778.5,-15.83,-16.31,-16.31,0,*6D
1517806871.02,55234,7.13,72776.8,-15.85,-16.31,-16.27,0,*6B
1517806872.3,55235,7.13,72780.3,-15.85,-16.41,-16.31,0,*6A
1517806873.53,55236,7.13,72776.0,-15.83,-16.31,-16.41,0,*6F
1517806874.77,55237,7.13,72778.0,-15.83,-16.41,-16.31,0,*6E
1517806876.04,55238,7.13,72782.0,-15.83,-16.27,-16.31,0,*61
1517806877.33,55239,7.13,72778.5,-15.85,-16.31,-16.27,0,*66
1517806878.62,55240,7.13,72774.0,-15.85,-16.31,-16.27,0,*68
1517806879.86,55241,7.13,72778.0,-15.83,-16.27,-16.41,0,*68
1517806881.11,55242,7.13,72776.8,-15.85,-16.41,-16.41,0,*6D
1517806882.4,55243,7.13,72778.3,-15.85,-16.31,-16.31,0,*6C
1517806883.67,55244,7.13,72776.0,-15.83,-16.27,-16.31,0,*6A
1517806884.91,55245,7.13,72778.3,-15.83,-16.41,-16.31,0,*6B
1517806886.15,55246,7.13,72776.0,-15.83,-16.41,-16.31,0,*68
1517806887.42,55247,7.13,72778.3,-15.85,-16.31,-16.41,0,*6F
1517806888.71,55248,7.13,72772.5,-15.85,-16.31,-16.31,0,*67
1517806889.95,55249,7.13,72774.3,-15.83,-16.41,-16.31,0,*67
1517806891.21,55250,7.13,72776.5,-15.83,-16.31,-16.31,0,*68
1517806892.47,55251,7.13,72774.3,-15.83,-16.31,-16.31,0,*69
1517806893.73,55252,7.13,72778.0,-15.83,-16.31,-16.31,0,*6A
1517806895.0,55253,7.13,72772.8,-15.85,-16.31,-16.41,0,*6A
1517806896.24,55254,7.13,72774.3,-15.83,-16.41,-16.31,0,*6B
1517806897.5,55255,7.13,72774.5,-15.83,-16.31,-16.31,0,*6D
1517806898.76,55256,7.13,72772.3,-15.83,-16.31,-16.27,0,*69
1517806900.02,55257,7.13,72772.0,-15.83,-16.31,-16.27,0,*68
1517806901.24,55258,7.13,72772.5,-15.83,-16.41,-16.45,0,*64
1517806902.48,55259,7.13,72778.8,-15.83,-16.41,-16.31,0,*66
1517806903.74,55260,7.13,72776.3,-15.83,-16.31,-16.31,0,*6B
1517806904.99,55261,7.13,72774.0,-15.85,-16.41,-16.41,0,*6C
1517806906.26,55262,7.13,72772.3,-15.85,-16.41,-16.31,0,*68
1517806907.51,55263,7.13,72772.3,-15.83,-16.41,-16.27,0,*68
1517806908.77,55264,7.13,72778.8,-15.83,-16.31,-16.31,0,*6F
1517806910.03,55265,7.13,72776.3,-15.83,-16.27,-16.31,0,*69
1517806911.3,55266,7.13,72774.3,-15.85,-16.41,-16.31,0,*6C
1517806912.59,55267,7.13,72774.3,-15.85,-16.31,-16.31,0,*6A
1517806913.81,55268,7.13,72776.8,-15.83,-16.41,-16.41,0,*63
1517806915.08,55269,7.13,72774.0,-15.85,-16.31,-16.41,0,*63
1517806916.32,55270,7.13,72772.5,-15.83,-16.31,-16.41,0,*6D
1517806917.58,55271,7.13,72772.5,-15.85,-16.31,-16.41,0,*6A
1517806918.83,55272,7.13,72774.0,-15.83,-16.41,-16.31,0,*6F
1517806920.07,55273,7.13,72776.0,-15.83,-16.41,-16.31,0,*6E
1517806921.34,55274,7.13,72774.8,-15.85,-16.31,-16.41,0,*6F
1517806922.6,55275,7.13,72772.8,-15.83,-16.31,-16.31,0,*6F
1517806923.86,55276,7.13,72772.3,-15.83,-16.31,-16.27,0,*6B
1517806925.15,55277,7.13,72774.5,-15.85,-16.31,-16.31,0,*6B
1517806926.44,55278,7.13,72772.5,-15.85,-16.31,-16.31,0,*64
1517806927.71,55279,7.13,72772.3,-15.85,-16.41,-16.31,0,*62
1517806929.0,55280,7.13,72772.0,-15.85,-16.31,-16.27,0,*64
1517806930.25,55281,7.13,72774.3,-15.83,-16.41,-16.31,0,*63
1517806931.51,55282,7.13,72772.8,-15.83,-16.31,-16.31,0,*67
1517806932.74,55283,7.13,72770.5,-15.83,-16.31,-16.41,0,*61
1517806934.02,55284,7.13,72774.0,-15.85,-16.41,-16.31,0,*60
1517806935.31,55285,7.13,72772.0,-15.85,-16.31,-16.31,0,*66
1517806936.57,55286,7.13,72774.3,-15.83,-16.31,-16.31,0,*63
1517806937.86,55287,7.13,72772.5,-15.85,-16.31,-16.31,0,*64
1517806939.13,55288,7.13,72774.8,-15.85,-16.41,-16.27,0,*6B
1517806940.39,55289,7.13,72774.8,-15.83,-16.31,-16.27,0,*6B
1517806941.66,55290,7.13,72778.3,-15.85,-16.45,-16.31,0,*61
1517806942.92,55291,7.13,72774.8,-15.83,-16.31,-16.27,0,*62
1517806944.21,55292,7.13,72774.5,-15.85,-16.31,-16.31,0,*60
1517806945.47,55293,7.13,72772.3,-15.83,-16.31,-16.31,0,*67
1517806946.76,55294,7.13,72772.5,-15.85,-16.31,-16.31,0,*66
1517806948.03,55295,7.13,72776.8,-15.85,-16.31,-16.41,0,*60
1517806949.29,55296,7.13,72778.0,-15.83,-16.31,-16.27,0,*65
1517806950.58,55297,7.13,72774.5,-15.85,-16.31,-16.31,0,*65
1517806951.81,55298,7.13,72776.3,-15.83,-16.31,-16.41,0,*6B
1517806953.1,55299,7.13,72778.5,-15.85,-16.31,-16.31,0,*6B
1517806954.35,55300,7.13,72778.3,-15.83,-16.41,-16.31,0,*6B
1517806955.64,55301,7.13,72778.5,-15.85,-16.31,-16.31,0,*6B
1517806956.93,55302,7.13,72774.8,-15.85,-16.31,-16.31,0,*68
1517806958.22,55303,7.13,72778.0,-15.85,-16.31,-16.31,0,*69
1517806959.49,55304,7.13,72776.3,-15.85,-16.41,-16.27,0,*6E
1517806960.74,55305,7.13,72778.8,-15.85,-16.41,-16.41,0,*6F
1517806962.02,55306,7.13,72778.5,-15.85,-16.41,-16.31,0,*6B
1517806963.31,55307,7.13,72780.0,-15.85,-16.27,-16.31,0,*6A
1517806964.6,55308,7.13,72778.0,-15.85,-16.31,-16.31,0,*62
1517806965.87,55309,7.13,72782.0,-15.85,-16.41,-16.31,0,*64
1517806967.13,55310,7.13,72780.5,-15.83,-16.31,-16.31,0,*6D
1517806968.41,55311,7.13,72776.0,-15.85,-16.41,-16.31,0,*6D
1517806969.68,55312,7.13,72778.3,-15.85,-16.41,-16.31,0,*6E
1517806970.92,55313,7.13,72778.8,-15.83,-16.31,-16.41,0,*69
1517806972.21,55314,7.13,72776.3,-15.85,-16.31,-16.31,0,*6F
1517806973.45,55315,7.13,72776.0,-15.83,-16.41,-16.31,0,*6F
1517806974.74,55316,7.13,72774.8,-15.85,-16.31,-16.31,0,*6D
1517806975.98,55317,7.13,72772.8,-15.83,-16.41,-16.31,0,*6D
1517806977.27,55318,7.13,72768.5,-15.85,-16.31,-16.31,0,*63
1517806978.56,55319,7.13,72770.8,-15.85,-16.31,-16.31,0,*62
1517806979.83,55320,7.13,72774.3,-15.85,-16.31,-16.41,0,*6F
1517806981.1,55321,7.13,72768.5,-15.85,-16.27,-16.41,0,*69
1517806982.35,55322,7.13,72768.3,-15.85,-16.41,-16.41,0,*6A
1517806983.62,55323,7.13,72766.3,-15.85,-16.41,-16.31,0,*6C
1517806984.9,55324,7.13,72762.3,-15.85,-16.41,-16.27,0,*6C
1517806986.17,55325,7.13,72766.0,-15.85,-16.41,-16.31,0,*6A
1517806987.46,55326,7.13,72766.3,-15.85,-16.31,-16.31,0,*6E
1517806988.72,55327,7.13,72768.8,-15.83,-16.31,-16.31,0,*69
1517806989.99,55328,7.13,72766.3,-15.85,-16.27,-16.45,0,*64
1517806991.25,55329,7.13,72764.5,-15.85,-16.31,-16.41,0,*66
1517806992.52,55330,7.13,72764.0,-15.85,-16.27,-16.41,0,*69
1517806993.8,55331,7.13,72770.3,-15.85,-16.41,-16.31,0,*6F
1517806995.04,55332,7.13,72768.0,-15.83,-16.41,-16.31,0,*6A
1517806996.31,55333,7.13,72768.8,-15.85,-16.41,-16.31,0,*6D
1517806997.56,55334,7.13,72770.5,-15.83,-16.41,-16.31,0,*6C
1517806998.82,55335,7.13,72768.3,-15.85,-16.31,-16.41,0,*6B
1517807000.09,55336,7.13,72770.8,-15.85,-16.31,-16.41,0,*68
1517807001.36,55337,7.13,72770.3,-15.85,-16.31,-16.41,0,*69
1517807002.61,55338,7.13,72770.3,-15.85,-16.41,-16.41,0,*61
1517807003.87,55339,7.13,72768.5,-15.83,-16.31,-16.31,0,*66
1517807005.16,55340,7.13,72772.0,-15.85,-16.31,-16.31,0,*6E
1517807006.38,55341,7.13,72770.3,-15.83,-16.41,-16.41,0,*69
1517807007.62,55342,7.13,72772.5,-15.83,-16.41,-16.27,0,*6A
1517807008.89,55343,7.13,72772.0,-15.85,-16.31,-16.41,0,*6A
1517807010.17,55344,7.13,72770.5,-15.85,-16.41,-16.31,0,*6D
1517807011.44,55345,7.13,72768.5,-15.85,-16.41,-16.31,0,*6C
1517807012.71,55346,7.13,72774.0,-15.85,-16.41,-16.31,0,*6F
1517807013.96,55347,7.13,72774.0,-15.85,-16.41,-16.41,0,*69
1517807015.25,55348,7.13,72776.3,-15.85,-16.31,-16.31,0,*66
1517807016.52,55349,7.13,72776.8,-15.85,-16.31,-16.41,0,*60
1517807017.81,55350,7.13,72772.3,-15.85,-16.31,-16.31,0,*6F
1517807019.08,55351,7.13,72772.5,-15.85,-16.31,-16.41,0,*69
1517807020.37,55352,7.13,72776.5,-15.85,-16.31,-16.31,0,*6D
1517807021.66,55353,7.13,72778.3,-15.85,-16.31,-16.31,0,*6C
1517807022.93,55354,7.13,72782.3,-15.85,-16.45,-16.31,0,*68
1517807024.18,55355,7.13,72776.0,-15.85,-16.41,-16.41,0,*6A
1517807025.45,55356,7.13,72774.5,-15.85,-16.41,-16.31,0,*6E
1517807026.72,55357,7.13,72776.3,-15.85,-16.31,-16.41,0,*6F
1517807028.01,55358,7.13,72778.8,-15.85,-16.31,-16.31,0,*67
1517807029.27,55359,7.13,72776.3,-15.83,-16.31,-16.31,0,*60
1517807030.54,55360,7.13,72776.3,-15.85,-16.41,-16.31,0,*6B
1517807031.81,55361,7.13,72772.3,-15.85,-16.41,-16.31,0,*6A
1517807033.09,55362,7.13,72776.3,-15.85,-16.41,-16.31,0,*69
1517807034.38,55363,7.13,72778.3,-15.85,-16.31,-16.31,0,*6F
1517807035.67,55364,7.13,72774.3,-15.85,-16.31,-16.31,0,*68
1517807036.93,55365,7.13,72774.3,-15.85,-16.31,-16.41,0,*6E
1517807038.17,55366,7.13,72774.3,-15.83,-16.31,-16.41,0,*6B
1517807039.46,55367,7.13,72772.3,-15.85,-16.27,-16.31,0,*6C
1517807040.74,55368,7.13,72774.3,-15.85,-16.27,-16.41,0,*64
1517807042.01,55369,7.13,72774.3,-15.85,-16.45,-16.27,0,*61
1517807043.23,55370,7.13,72778.8,-15.83,-16.41,-16.41,0,*6B
1517807044.45,55371,7.13,72778.0,-15.83,-16.41,-16.41,0,*6A
1517807045.7,55372,7.13,72778.0,-15.85,-16.41,-16.41,0,*6F
1517807046.95,55373,7.13,72776.3,-15.85,-16.41,-16.41,0,*6E
1517807048.21,55374,7.13,72776.5,-15.83,-16.27,-16.31,0,*68
1517807049.46,55375,7.13,72776.3,-15.85,-16.45,-16.41,0,*6C
1517807050.71,55376,7.13,72774.8,-15.85,-16.45,-16.41,0,*6F
1517807051.97,55377,7.13,72770.5,-15.85,-16.31,-16.41,0,*6D
1517807053.22,55378,7.13,72768.5,-15.85,-16.41,-16.45,0,*61
1517807054.49,55379,7.13,72766.5,-15.85,-16.27,-16.41,0,*64
1517807055.72,55380,7.13,72768.3,-15.89,-16.37,-16.45,0,*6B
1517807056.98,55381,7.13,72768.0,-15.89,-16.45,-16.31,0,*6C
1517807058.23,55382,7.13,72766.3,-15.85,-16.45,-16.41,0,*64
1517807059.44,55383,7.13,72766.0,-15.83,-16.45,-16.45,0,*67
1517807060.71,55384,7.13,72764.3,-15.85,-16.45,-16.31,0,*65
1517807061.96,55385,7.13,72756.5,-15.85,-16.41,-16.41,0,*67
1517807063.25,55386,7.13,72758.8,-15.85,-16.31,-16.31,0,*64
1517807064.5,55387,7.13,72762.8,-15.85,-16.45,-16.41,0,*61
1517807065.74,55388,7.13,72764.0,-15.85,-16.45,-16.45,0,*6A
1517807066.98,55389,7.13,72770.8,-15.85,-16.41,-16.45,0,*6F
1517807068.27,55390,7.13,72768.5,-15.85,-16.31,-16.31,0,*63
1517807069.52,55391,7.13,72760.8,-15.85,-16.41,-16.41,0,*62
1517807070.76,55392,7.13,72762.0,-15.85,-16.45,-16.45,0,*61
1517807072.01,55393,7.13,72764.5,-15.85,-16.41,-16.45,0,*64
1517807073.26,55394,7.13,72764.5,-15.85,-16.41,-16.41,0,*67
1517807074.51,55395,7.13,72766.8,-15.85,-16.45,-16.55,0,*67
1517807075.75,55396,7.13,72770.3,-15.85,-16.45,-16.41,0,*61
1517807076.99,55397,7.13,72770.3,-15.89,-16.45,-16.37,0,*6D
1517807078.22,55398,7.13,72766.5,-15.89,-16.45,-16.45,0,*67
1517807079.46,55399,7.13,72768.8,-15.85,-16.45,-16.45,0,*6A
1517807080.71,55400,7.13,72772.8,-15.85,-16.41,-16.41,0,*6D
1517807081.98,55401,7.13,72772.0,-15.85,-16.45,-16.31,0,*6F
1517807083.23,55402,7.13,72772.5,-15.85,-16.41,-16.45,0,*6B
1517807084.48,55403,7.13,72774.3,-15.85,-16.41,-16.41,0,*6E
1517807085.69,55404,7.13,72774.8,-15.83,-16.45,-16.45,0,*6F
1517807086.95,55405,7.13,72774.0,-15.85,-16.31,-16.41,0,*6F
1517807088.2,55406,7.13,72774.3,-15.85,-16.41,-16.45,0,*6F
1517807089.45,55407,7.13,72768.5,-15.85,-16.41,-16.41,0,*6A
1517807090.69,55408,7.13,72772.8,-15.85,-16.41,-16.45,0,*61
1517807091.95,55409,7.13,72778.0,-15.85,-16.41,-16.41,0,*64
1517807093.22,55410,7.13,72772.3,-15.85,-16.41,-16.31,0,*6B
1517807094.48,55411,7.13,72774.3,-15.89,-16.37,-16.31,0,*67
1517807095.74,55412,7.13,72774.8,-15.89,-16.51,-16.37,0,*62
1517807097.01,55413,7.13,72772.3,-15.85,-16.41,-16.31,0,*68
1517807098.28,55414,7.13,72772.3,-15.85,-16.31,-16.41,0,*6F
1517807099.55,55415,7.13,72776.0,-15.85,-16.45,-16.31,0,*6A
1517807100.81,55416,7.13,72776.0,-15.89,-16.45,-16.51,0,*63
1517807102.06,55417,7.13,72774.8,-15.85,-16.41,-16.41,0,*6B
1517807103.31,55418,7.13,72776.0,-15.85,-16.41,-16.41,0,*64
1517807104.56,55419,7.13,72778.3,-15.85,-16.41,-16.45,0,*61
1517807105.81,55420,7.13,72778.3,-15.85,-16.41,-16.41,0,*6F
1517807107.07,55421,7.13,72772.8,-15.85,-16.31,-16.41,0,*69
1517807108.35,55422,7.13,72772.0,-15.85,-16.41,-16.31,0,*6A
1517807109.59,55423,7.13,72774.3,-15.85,-16.45,-16.45,0,*6C
1517807110.86,55424,7.13,72774.0,-15.85,-16.41,-16.31,0,*6C
1517807112.1,55425,7.13,72774.0,-15.89,-16.37,-16.37,0,*66
1517807113.37,55426,7.13,72774.0,-15.85,-16.31,-16.41,0,*6E
1517807114.66,55427,7.13,72772.3,-15.85,-16.31,-16.31,0,*68
1517807115.9,55428,7.13,72774.8,-15.85,-16.41,-16.45,0,*63
1517807117.16,55429,7.13,72776.0,-15.89,-16.45,-16.51,0,*6F
1517807118.39,55430,7.13,72774.8,-15.89,-16.45,-16.45,0,*62
1517807119.65,55431,7.13,72774.0,-15.89,-16.51,-16.45,0,*66
1517807120.9,55432,7.13,72772.3,-15.89,-16.31,-16.45,0,*63
1517807122.14,55433,7.13,72772.0,-15.89,-16.45,-16.37,0,*64
1517807123.37,55434,7.13,72768.3,-15.89,-16.45,-16.37,0,*63
1517807124.61,55435,7.13,72770.8,-15.89,-16.45,-16.45,0,*67
1517807125.84,55436,7.13,72770.8,-15.89,-16.45,-16.45,0,*64
1517807127.12,55437,7.13,72768.5,-15.89,-16.31,-16.51,0,*63
1517807128.37,55438,7.13,72770.5,-15.85,-16.41,-16.41,0,*66
1517807129.61,55439,7.13,72768.3,-15.85,-16.41,-16.45,0,*63
1517807130.83,55440,7.13,72768.5,-15.91,-16.37,-16.45,0,*69
1517807132.08,55441,7.13,72768.3,-15.85,-16.41,-16.41,0,*68
1517807133.31,55442,7.13,72774.8,-15.89,-16.45,-16.45,0,*67
1517807134.59,55443,7.13,72774.3,-15.89,-16.31,-16.31,0,*66
1517807135.83,55444,7.13,72772.5,-15.89,-16.45,-16.45,0,*61
1517807137.08,55445,7.13,72770.3,-15.85,-16.55,-16.41,0,*69
1517807138.31,55446,7.13,72774.0,-15.91,-16.51,-16.45,0,*6F
1517807139.54,55447,7.13,72768.8,-15.89,-16.45,-16.45,0,*62
1517807140.8,55448,7.13,72770.5,-15.89,-16.45,-16.51,0,*68
1517807142.05,55449,7.13,72768.3,-15.85,-16.41,-16.45,0,*64
1517807143.28,55450,7.13,72770.3,-15.89,-16.37,-16.45,0,*61
1517807144.51,55451,7.13,72768.8,-15.89,-16.45,-16.45,0,*65
1517807145.77,55452,7.13,72768.5,-15.89,-16.51,-16.45,0,*63
1517807147.03,55453,7.13,72772.8,-15.89,-16.45,-16.51,0,*62
1517807148.24,55454,7.13,72766.8,-15.91,-16.37,-16.45,0,*6C
1517807149.48,55455,7.13,72770.3,-15.89,-16.45,-16.37,0,*64
1517807150.74,55456,7.13,72774.0,-15.89,-16.51,-16.45,0,*67
1517807151.97,55457,7.13,72774.0,-15.89,-16.45,-16.45,0,*63
1517807153.2,55458,7.13,72774.0,-15.89,-16.45,-16.45,0,*6C
1517807154.46,55459,7.13,72774.5,-15.89,-16.37,-16.51,0,*6D
1517807155.72,55460,7.13,72772.0,-15.89,-16.45,-16.51,0,*62
1517807156.98,55461,7.13,72774.8,-15.89,-16.51,-16.45,0,*63
1517807158.21,55462,7.13,72778.8,-15.89,-16.45,-16.37,0,*60
1517807159.45,55463,7.13,72776.0,-15.89,-16.45,-16.45,0,*64
1517807160.71,55464,7.13,72776.8,-15.89,-16.45,-16.51,0,*66
1517807161.99,55465,7.13,72774.0,-15.89,-16.51,-16.31,0,*64
1517807163.2,55466,7.13,72772.3,-15.91,-16.45,-16.45,0,*68
1517807164.44,55467,7.13,72772.5,-15.89,-16.45,-16.37,0,*65
1517807165.67,55468,7.13,72772.0,-15.89,-16.45,-16.45,0,*6F
1517807166.91,55469,7.13,72768.8,-15.89,-16.45,-16.45,0,*6E
1517807168.14,55470,7.13,72770.3,-15.89,-16.45,-16.45,0,*66
1517807169.37,55471,7.13,72778.8,-15.89,-16.37,-16.37,0,*67
1517807170.61,55472,7.13,72774.3,-15.89,-16.45,-16.45,0,*64
1517807171.88,55473,7.13,72774.0,-15.85,-16.41,-16.31,0,*6E
1517807173.13,55474,7.13,72776.3,-15.85,-16.41,-16.41,0,*6E
1517807174.36,55475,7.13,72774.3,-15.89,-16.45,-16.45,0,*63
1517807175.6,55476,7.13,72774.5,-15.89,-16.45,-16.45,0,*60
1517807176.83,55477,7.13,72774.3,-15.89,-16.37,-16.37,0,*61
1517807178.07,55478,7.13,72770.5,-15.89,-16.45,-16.37,0,*6B
1517807179.3,55479,7.13,72774.5,-15.89,-16.37,-16.45,0,*6A
1517807180.53,55480,7.13,72772.8,-15.89,-16.45,-16.45,0,*69
1517807181.77,55481,7.13,72772.8,-15.89,-16.45,-16.45,0,*68
1517807183.0,55482,7.13,72776.0,-15.89,-16.45,-16.45,0,*6B
1517807184.22,55483,7.13,72774.8,-15.91,-16.45,-16.37,0,*66
1517807185.43,55484,7.13,72778.5,-15.91,-16.45,-16.45,0,*64
1517807186.66,55485,7.13,72778.5,-15.89,-16.45,-16.45,0,*6C
1517807187.92,55486,7.13,72778.5,-15.89,-16.37,-16.51,0,*6F
1517807189.2,55487,7.13,72776.0,-15.89,-16.51,-16.51,0,*6E
1517807190.44,55488,7.13,72772.3,-15.89,-16.45,-16.45,0,*61
1517807191.7,55489,7.13,72774.0,-15.89,-16.45,-16.51,0,*65
1517807192.98,55490,7.13,72772.8,-15.89,-16.51,-16.51,0,*68
1517807194.22,55491,7.13,72776.0,-15.91,-16.51,-16.45,0,*65
1517807195.46,55492,7.13,72774.3,-15.91,-16.37,-16.51,0,*63
1517807196.69,55493,7.13,72776.8,-15.89,-16.45,-16.45,0,*6B
1517807197.92,55494,7.13,72778.3,-15.89,-16.45,-16.45,0,*6C
1517807199.16,55495,7.13,72776.5,-15.89,-16.45,-16.45,0,*6D
1517807200.44,55496,7.13,72776.0,-15.89,-16.51,-16.51,0,*6E
1517807201.69,55497,7.13,72778.5,-15.89,-16.51,-16.45,0,*6A
1517807202.95,55498,7.13,72774.5,-15.89,-16.51,-16.45,0,*65
1517807204.19,55499,7.13,72774.8,-15.89,-16.45,-16.37,0,*64
1517807205.44,55500,7.13,72778.5,-15.89,-16.51,-16.45,0,*65
1517807206.68,55501,7.13,72774.5,-15.89,-16.45,-16.37,0,*64
1517807207.89,55502,7.13,72776.8,-15.91,-16.45,-16.45,0,*6B
1517807209.12,55503,7.13,72772.0,-15.89,-16.37,-16.45,0,*66
1517807210.36,55504,7.13,72774.8,-15.89,-16.45,-16.45,0,*64
1517807211.6,55505,7.13,72774.3,-15.91,-16.45,-16.51,0,*69
1517807212.86,55506,7.13,72768.8,-15.91,-16.51,-16.51,0,*6F
1517807214.1,55507,7.13,72776.0,-15.91,-16.51,-16.37,0,*6E
1517807215.33,55508,7.13,72772.8,-15.89,-16.45,-16.37,0,*6D
1517807216.55,55509,7.13,72774.0,-15.91,-16.45,-16.45,0,*60
1517807217.81,55510,7.13,72774.5,-15.89,-16.45,-16.51,0,*64
1517807219.07,55511,7.13,72774.5,-15.91,-16.51,-16.51,0,*69
1517807220.33,55512,7.13,72774.0,-15.91,-16.51,-16.51,0,*6A
1517807221.57,55513,7.13,72776.5,-15.89,-16.37,-16.37,0,*62
1517807222.83,55514,7.13,72776.5,-15.89,-16.51,-16.37,0,*65
1517807224.09,55515,7.13,72776.5,-15.89,-16.51,-16.37,0,*64
1517807225.3,55516,7.13,72776.5,-15.91,-16.45,-16.45,0,*6E
1517807226.53,55517,7.13,72778.3,-15.89,-16.45,-16.45,0,*66
1517807227.77,55518,7.13,72776.3,-15.89,-16.45,-16.45,0,*69
1517807228.98,55519,7.13,72776.8,-15.91,-16.45,-16.45,0,*61
1517807230.19,55520,7.13,72776.0,-15.91,-16.37,-16.45,0,*6E
1517807231.41,55521,7.13,72778.8,-15.91,-16.37,-16.37,0,*6A
1517807232.65,55522,7.13,72776.0,-15.91,-16.51,-16.37,0,*69
1517807233.88,55523,7.13,72778.0,-15.89,-16.45,-16.37,0,*64
1517807235.12,55524,7.13,72778.8,-15.89,-16.37,-16.37,0,*66
1517807236.33,55525,7.13,72780.0,-15.91,-16.37,-16.37,0,*6E
1517807237.57,55526,7.13,72778.8,-15.89,-16.45,-16.37,0,*61
1517807238.81,55527,7.13,72776.8,-15.91,-16.45,-16.51,0,*69
1517807240.07,55528,7.13,72780.0,-15.89,-16.45,-16.51,0,*6F
1517807241.3,55529,7.13,72782.8,-15.89,-16.45,-16.45,0,*6B
1517807242.51,55530,7.13,72780.5,-15.91,-16.45,-16.45,0,*6A
1517807243.72,55531,7.13,72778.5,-15.91,-16.45,-16.45,0,*6B
1517807244.99,55532,7.13,72782.8,-15.89,-16.45,-16.31,0,*62
1517807246.22,55533,7.13,72782.8,-15.91,-16.51,-16.45,0,*6C
1517807247.44,55534,7.13,72780.5,-15.91,-16.37,-16.37,0,*6E
1517807248.67,55535,7.13,72782.3,-15.89,-16.45,-16.45,0,*66
1517807249.94,55536,7.13,72778.8,-15.91,-16.51,-16.51,0,*6C
1517807251.17,55537,7.13,72778.8,-15.89,-16.45,-16.45,0,*64
1517807252.38,55538,7.13,72780.5,-15.91,-16.45,-16.45,0,*62
1517807253.59,55539,7.13,72782.3,-15.91,-16.37,-16.37,0,*63
1517807254.83,55540,7.13,72780.3,-15.89,-16.45,-16.37,0,*61
1517807256.04,55541,7.13,72784.0,-15.91,-16.45,-16.45,0,*6C
1517807257.26,55542,7.13,72786.3,-15.91,-16.37,-16.37,0,*6F
1517807258.52,55543,7.13,72780.5,-15.89,-16.37,-16.31,0,*61
1517807259.74,55544,7.13,72776.3,-15.91,-16.37,-16.37,0,*69
1517807260.95,55545,7.13,72780.5,-15.91,-16.45,-16.37,0,*6D
1517807262.21,55546,7.13,72778.5,-15.89,-16.45,-16.23,0,*62
1517807263.45,55547,7.13,72780.0,-15.89,-16.37,-16.45,0,*66
1517807264.69,55548,7.13,72778.8,-15.85,-16.45,-16.41,0,*64
1517807265.95,55549,7.13,72776.8,-15.89,-16.51,-16.37,0,*6D
1517807267.17,55550,7.13,72772.3,-15.91,-16.45,-16.45,0,*6C
1517807268.38,55551,7.13,72774.8,-15.91,-16.37,-16.45,0,*68
1517807269.59,55552,7.13,72774.3,-15.91,-16.45,-16.45,0,*6E
1517807270.81,55553,7.13,72772.0,-15.91,-16.37,-16.37,0,*6F
1517807272.02,55554,7.13,72772.0,-15.91,-16.45,-16.45,0,*68
1517807273.28,55555,7.13,72774.8,-15.89,-16.51,-16.45,0,*65
1517807274.49,55556,7.13,72774.8,-15.91,-16.37,-16.45,0,*6F
1517807275.72,55557,7.13,72770.8,-15.89,-16.45,-16.45,0,*62
1517807276.93,55558,7.13,72768.8,-15.91,-16.45,-16.45,0,*64
1517807278.14,55559,7.13,72770.0,-15.91,-16.45,-16.45,0,*65
1517807279.38,55560,7.13,72770.0,-15.91,-16.51,-16.45,0,*6A
1517807280.59,55561,7.13,72766.0,-15.91,-16.45,-16.45,0,*6E
1517807281.83,55562,7.13,72766.0,-15.91,-16.45,-16.51,0,*68
1517807283.04,55563,7.13,72768.3,-15.91,-16.45,-16.45,0,*6C
1517807284.3,55564,7.13,72770.8,-15.89,-16.45,-16.51,0,*67
1517807285.51,55565,7.13,72770.5,-15.91,-16.45,-16.45,0,*6A
1517807286.73,55566,7.13,72770.0,-15.91,-16.45,-16.37,0,*6C
1517807287.97,55567,7.13,72772.3,-15.91,-16.59,-16.51,0,*60
1517807289.19,55568,7.13,72768.8,-15.91,-16.45,-16.37,0,*62
1517807290.4,55569,7.13,72768.5,-15.91,-16.45,-16.45,0,*66
1517807291.61,55570,7.13,72768.0,-15.91,-16.45,-16.37,0,*6B
1517807292.83,55571,7.13,72772.3,-15.91,-16.45,-16.45,0,*6F
1517807294.04,55572,7.13,72772.5,-15.91,-16.45,-16.45,0,*6C
1517807295.27,55573,7.13,72772.8,-15.91,-16.51,-16.45,0,*68
1517807296.49,55574,7.13,72774.0,-15.91,-16.45,-16.45,0,*6A
1517807297.75,55575,7.13,72778.0,-15.91,-16.51,-16.51,0,*6B
1517807298.98,55576,7.13,72776.3,-15.91,-16.51,-16.45,0,*6D
1517807300.25,55577,7.13,72774.0,-15.91,-16.51,-16.51,0,*69